Time,TemperatureF,DewpointF,PressureIn,WindDirection,WindDirectionDegrees,WindSpeedMPH,WindSpeedGustMPH,Humidity,HourlyPrecipIn,Conditions,Clouds,dailyrainin,SoftwareType,DateUTC
2015-07-29 00:03:00,71.4,61.1,29.50,SSW,202,0.0,0.0,70,-99.99,,,-99.99,VWS V15.00,2015-07-29 04:03:00,
2015-07-29 00:08:00,71.4,61.1,29.50,SSW,202,0.0,0.0,70,-99.99,,,-99.99,VWS V15.00,2015-07-29 04:08:00,
2015-07-29 00:13:00,71.2,61.0,29.50,SSW,202,0.0,0.0,70,-99.99,,,-99.99,VWS V15.00,2015-07-29 04:13:00,
2015-07-29 00:18:00,71.1,61.2,29.50,SSW,202,0.0,0.0,71,-99.99,,,-99.99,VWS V15.00,2015-07-29 04:18:00,
2015-07-29 00:24:00,70.9,61.4,29.50,WSW,248,0.0,0.0,72,-99.99,,,-99.99,VWS V15.00,2015-07-29 04:24:00,
2015-07-29 00:29:00,70.7,61.2,29.50,WSW,248,0.0,0.0,72,-99.99,,,-99.99,VWS V15.00,2015-07-29 04:29:00,
2015-07-29 00:34:00,70.7,61.2,29.50,WSW,248,0.0,0.0,72,-99.99,,,-99.99,VWS V15.00,2015-07-29 04:34:00,
2015-07-29 00:44:00,70.3,60.9,29.50,WSW,248,0.0,0.0,72,-99.99,,,-99.99,VWS V15.00,2015-07-29 04:44:00,
2015-07-29 00:49:00,70.3,61.3,29.50,SSW,202,0.0,0.0,73,-99.99,,,-99.99,VWS V15.00,2015-07-29 04:49:00,
2015-07-29 00:54:00,70.3,61.3,29.50,SSW,202,0.0,0.0,73,-99.99,,,-99.99,VWS V15.00,2015-07-29 04:54:00,
2015-07-29 00:59:00,70.3,61.3,29.50,SSW,202,0.0,0.0,73,-99.99,,,-99.99,VWS V15.00,2015-07-29 04:59:00,
2015-07-29 01:04:00,70.2,61.5,29.50,WSW,248,0.0,0.0,74,-99.99,,,-99.99,VWS V15.00,2015-07-29 05:04:00,
2015-07-29 01:10:00,69.8,61.2,29.50,SSW,202,0.0,0.0,74,-99.99,,,-99.99,VWS V15.00,2015-07-29 05:10:00,
2015-07-29 01:15:00,69.8,61.2,29.50,SSW,202,0.0,0.0,74,-99.99,,,-99.99,VWS V15.00,2015-07-29 05:15:00,
2015-07-29 01:20:00,69.6,61.3,29.50,WSW,248,0.0,0.0,75,-99.99,,,-99.99,VWS V15.00,2015-07-29 05:20:00,
2015-07-29 01:25:00,69.4,61.5,29.50,SSW,202,1.6,1.6,76,-99.99,,,-99.99,VWS V15.00,2015-07-29 05:25:00,
2015-07-29 01:30:00,69.4,61.9,29.50,SSW,202,1.6,1.6,77,-99.99,,,-99.99,VWS V15.00,2015-07-29 05:30:00,
2015-07-29 01:35:00,69.4,61.9,29.50,SW,225,1.3,1.3,77,-99.99,,,-99.99,VWS V15.00,2015-07-29 05:35:00,
2015-07-29 01:40:00,69.3,61.8,29.50,WSW,248,0.0,0.0,77,-99.99,,,-99.99,VWS V15.00,2015-07-29 05:40:00,
2015-07-29 01:45:00,69.1,61.6,29.50,WSW,248,0.0,0.0,77,-99.99,,,-99.99,VWS V15.00,2015-07-29 05:45:00,
2015-07-29 01:50:00,68.9,61.4,29.50,WSW,248,0.0,0.0,77,-99.99,,,-99.99,VWS V15.00,2015-07-29 05:50:00,
2015-07-29 01:55:00,68.9,61.4,29.50,SSW,202,1.6,1.6,77,-99.99,,,-99.99,VWS V15.00,2015-07-29 05:55:00,
2015-07-29 02:00:00,68.7,61.6,29.50,WSW,248,1.1,1.1,78,-99.99,,,-99.99,VWS V15.00,2015-07-29 06:00:00,
2015-07-29 02:06:00,68.5,61.4,29.50,SSW,202,0.0,0.0,78,-99.99,,,-99.99,VWS V15.00,2015-07-29 06:06:00,
2015-07-29 02:11:00,68.7,61.6,29.50,SSW,202,0.0,0.0,78,-99.99,,,-99.99,VWS V15.00,2015-07-29 06:11:00,
2015-07-29 02:16:00,68.7,61.6,29.50,South,180,0.0,0.0,78,-99.99,,,-99.99,VWS V15.00,2015-07-29 06:16:00,
2015-07-29 02:21:00,68.5,61.4,29.50,South,180,0.0,0.0,78,-99.99,,,-99.99,VWS V15.00,2015-07-29 06:21:00,
2015-07-29 02:26:00,68.5,61.4,29.50,South,180,0.0,0.0,78,-99.99,,,-99.99,VWS V15.00,2015-07-29 06:26:00,
2015-07-29 02:31:00,68.5,61.4,29.50,South,180,0.0,0.0,78,-99.99,,,-99.99,VWS V15.00,2015-07-29 06:31:00,
2015-07-29 02:36:00,68.4,61.6,29.50,South,180,0.0,0.0,79,-99.99,,,-99.99,VWS V15.00,2015-07-29 06:36:00,
2015-07-29 02:41:00,68.4,61.6,29.50,SE,135,0.0,0.0,79,-99.99,,,-99.99,VWS V15.00,2015-07-29 06:41:00,
2015-07-29 02:46:00,68.4,61.6,29.50,SE,135,0.0,0.0,79,-99.99,,,-99.99,VWS V15.00,2015-07-29 06:46:00,
2015-07-29 02:51:00,68.5,61.8,29.50,SE,135,0.0,0.0,79,-99.99,,,-99.99,VWS V15.00,2015-07-29 06:51:00,
2015-07-29 02:56:00,68.4,61.6,29.50,SE,135,0.0,0.0,79,-99.99,,,-99.99,VWS V15.00,2015-07-29 06:56:00,
2015-07-29 03:01:00,68.4,61.6,29.50,SE,135,0.0,0.0,79,-99.99,,,-99.99,VWS V15.00,2015-07-29 07:01:00,
2015-07-29 03:06:00,68.2,61.4,29.50,SE,135,0.0,0.0,79,-99.99,,,-99.99,VWS V15.00,2015-07-29 07:06:00,
2015-07-29 03:11:00,68.0,61.2,29.47,SE,135,0.0,0.0,79,-99.99,,,-99.99,VWS V15.00,2015-07-29 07:11:00,
2015-07-29 03:16:00,67.8,61.4,29.47,SE,135,0.0,0.0,80,-99.99,,,-99.99,VWS V15.00,2015-07-29 07:16:00,
2015-07-29 03:21:00,67.6,61.3,29.47,SE,135,0.0,0.0,80,-99.99,,,-99.99,VWS V15.00,2015-07-29 07:21:00,
2015-07-29 03:26:00,67.5,61.1,29.47,SE,135,0.0,0.0,80,-99.99,,,-99.99,VWS V15.00,2015-07-29 07:26:00,
2015-07-29 03:31:00,67.5,61.1,29.47,SE,135,0.0,0.0,80,-99.99,,,-99.99,VWS V15.00,2015-07-29 07:31:00,
2015-07-29 03:36:00,67.5,61.1,29.47,SE,135,0.0,0.0,80,-99.99,,,-99.99,VWS V15.00,2015-07-29 07:36:00,
2015-07-29 03:41:00,67.5,61.1,29.47,SE,135,0.0,0.0,80,-99.99,,,-99.99,VWS V15.00,2015-07-29 07:41:00,
2015-07-29 03:46:00,67.3,60.9,29.47,SE,135,0.0,0.0,80,-99.99,,,-99.99,VWS V15.00,2015-07-29 07:46:00,
2015-07-29 03:51:00,67.5,61.4,29.47,SE,135,0.0,0.0,81,-99.99,,,-99.99,VWS V15.00,2015-07-29 07:51:00,
2015-07-29 03:56:00,67.3,61.3,29.47,SE,135,0.0,0.0,81,-99.99,,,-99.99,VWS V15.00,2015-07-29 07:56:00,
2015-07-29 04:01:00,66.9,60.9,29.47,SE,135,0.0,0.0,81,-99.99,,,-99.99,VWS V15.00,2015-07-29 08:01:00,
2015-07-29 04:06:00,66.9,60.9,29.47,SE,135,0.0,0.0,81,-99.99,,,-99.99,VWS V15.00,2015-07-29 08:06:00,
2015-07-29 04:11:00,66.7,60.4,29.47,SE,135,0.0,0.0,80,-99.99,,,-99.99,VWS V15.00,2015-07-29 08:11:00,
2015-07-29 04:16:00,66.7,60.7,29.47,SE,135,0.0,0.0,81,-99.99,,,-99.99,VWS V15.00,2015-07-29 08:16:00,
2015-07-29 04:21:00,66.7,60.7,29.47,SE,135,0.0,0.0,81,-99.99,,,-99.99,VWS V15.00,2015-07-29 08:21:00,
2015-07-29 04:26:00,66.9,61.2,29.47,SE,135,0.0,0.0,82,-99.99,,,-99.99,VWS V15.00,2015-07-29 08:26:00,
2015-07-29 04:31:00,66.7,61.1,29.47,SE,135,0.0,0.0,82,-99.99,,,-99.99,VWS V15.00,2015-07-29 08:31:00,
2015-07-29 04:36:00,66.6,60.9,29.47,SE,135,0.0,0.0,82,-99.99,,,-99.99,VWS V15.00,2015-07-29 08:36:00,
2015-07-29 04:41:00,66.6,60.9,29.50,SSW,202,0.0,0.0,82,-99.99,,,-99.99,VWS V15.00,2015-07-29 08:41:00,
2015-07-29 04:46:00,66.6,60.9,29.50,West,270,0.0,0.0,82,-99.99,,,-99.99,VWS V15.00,2015-07-29 08:46:00,
2015-07-29 04:51:00,66.4,60.7,29.50,WSW,248,0.0,0.0,82,-99.99,,,-99.99,VWS V15.00,2015-07-29 08:51:00,
2015-07-29 04:56:00,66.2,60.5,29.50,WSW,248,0.0,0.0,82,-99.99,,,-99.99,VWS V15.00,2015-07-29 08:56:00,
2015-07-29 05:01:00,66.2,60.5,29.50,SSW,202,0.0,0.0,82,-99.99,,,-99.99,VWS V15.00,2015-07-29 09:01:00,
2015-07-29 05:06:00,66.2,60.5,29.50,SSW,202,0.0,0.0,82,-99.99,,,-99.99,VWS V15.00,2015-07-29 09:06:00,
2015-07-29 05:16:00,66.2,60.9,29.50,SSW,202,0.0,0.0,83,-99.99,,,-99.99,VWS V15.00,2015-07-29 09:16:00,
2015-07-29 05:22:00,66.2,60.9,29.50,SSW,202,0.0,0.0,83,-99.99,,,-99.99,VWS V15.00,2015-07-29 09:22:00,
2015-07-29 05:27:00,66.0,60.7,29.50,SSW,202,0.0,0.0,83,-99.99,,,-99.99,VWS V15.00,2015-07-29 09:27:00,
2015-07-29 05:32:00,66.0,60.7,29.50,South,180,0.0,0.0,83,-99.99,,,-99.99,VWS V15.00,2015-07-29 09:32:00,
2015-07-29 05:37:00,66.0,60.7,29.50,South,180,0.0,0.0,83,-99.99,,,-99.99,VWS V15.00,2015-07-29 09:37:00,
2015-07-29 05:42:00,66.0,60.7,29.50,South,180,0.0,0.0,83,-99.99,,,-99.99,VWS V15.00,2015-07-29 09:42:00,
2015-07-29 05:47:00,65.8,60.5,29.50,South,180,0.0,0.0,83,-99.99,,,-99.99,VWS V15.00,2015-07-29 09:47:00,
2015-07-29 06:02:00,65.8,60.9,29.50,South,180,0.0,0.0,84,-99.99,,,-99.99,VWS V15.00,2015-07-29 10:02:00,
2015-07-29 06:07:00,65.7,60.7,29.50,South,180,0.0,0.0,84,-99.99,,,-99.99,VWS V15.00,2015-07-29 10:07:00,
2015-07-29 06:13:00,65.7,60.7,29.50,South,180,0.0,0.0,84,-99.99,,,-99.99,VWS V15.00,2015-07-29 10:13:00,
2015-07-29 06:18:00,65.7,61.0,29.50,West,270,2.0,2.0,85,-99.99,,,-99.99,VWS V15.00,2015-07-29 10:18:00,
2015-07-29 06:23:00,65.5,60.9,29.50,WSW,248,1.6,1.6,85,-99.99,,,-99.99,VWS V15.00,2015-07-29 10:23:00,
2015-07-29 06:28:00,65.3,60.7,29.50,WSW,248,2.7,2.7,85,-99.99,,,-99.99,VWS V15.00,2015-07-29 10:28:00,
2015-07-29 06:33:00,65.3,60.7,29.50,West,270,0.0,0.0,85,-99.99,,,-99.99,VWS V15.00,2015-07-29 10:33:00,
2015-07-29 06:38:00,65.5,61.2,29.50,West,270,0.0,0.0,86,-99.99,,,-99.99,VWS V15.00,2015-07-29 10:38:00,
2015-07-29 06:43:00,65.7,61.4,29.50,West,270,0.0,0.0,86,-99.99,,,-99.99,VWS V15.00,2015-07-29 10:43:00,
2015-07-29 06:48:00,65.8,61.5,29.50,West,270,0.0,0.0,86,-99.99,,,-99.99,VWS V15.00,2015-07-29 10:48:00,
2015-07-29 06:53:00,65.8,61.9,29.50,South,180,0.0,0.0,87,-99.99,,,-99.99,VWS V15.00,2015-07-29 10:53:00,
2015-07-29 06:58:00,66.0,62.0,29.50,South,180,0.0,0.0,87,-99.99,,,-99.99,VWS V15.00,2015-07-29 10:58:00,
2015-07-29 07:03:00,66.2,62.2,29.50,SSE,158,0.0,0.0,87,-99.99,,,-99.99,VWS V15.00,2015-07-29 11:03:00,
2015-07-29 07:09:00,66.4,62.4,29.50,SSE,158,0.0,0.0,87,-99.99,,,-99.99,VWS V15.00,2015-07-29 11:09:00,
2015-07-29 07:14:00,66.4,62.4,29.50,SSE,158,0.0,0.0,87,-99.99,,,-99.99,VWS V15.00,2015-07-29 11:14:00,
2015-07-29 07:19:00,66.6,62.6,29.50,SSE,158,0.0,0.0,87,-99.99,,,-99.99,VWS V15.00,2015-07-29 11:19:00,
2015-07-29 07:24:00,66.7,62.8,29.50,SE,135,0.0,0.0,87,-99.99,,,-99.99,VWS V15.00,2015-07-29 11:24:00,
2015-07-29 07:29:00,67.1,63.4,29.50,SE,135,0.0,0.0,88,-99.99,,,-99.99,VWS V15.00,2015-07-29 11:29:00,
2015-07-29 07:34:00,67.3,63.6,29.50,SE,135,0.0,0.0,88,-99.99,,,-99.99,VWS V15.00,2015-07-29 11:34:00,
2015-07-29 07:39:00,67.5,63.8,29.50,SE,135,0.0,0.0,88,-99.99,,,-99.99,VWS V15.00,2015-07-29 11:39:00,
2015-07-29 07:44:00,67.6,64.0,29.50,SE,135,0.0,0.0,88,-99.99,,,-99.99,VWS V15.00,2015-07-29 11:44:00,
2015-07-29 07:49:00,67.8,64.1,29.50,SE,135,0.0,0.0,88,-99.99,,,-99.99,VWS V15.00,2015-07-29 11:49:00,
2015-07-29 07:54:00,68.0,64.3,29.50,West,270,0.0,0.0,88,-99.99,,,-99.99,VWS V15.00,2015-07-29 11:54:00,
2015-07-29 07:59:00,68.2,64.5,29.50,NNE,22,0.0,0.0,88,-99.99,,,-99.99,VWS V15.00,2015-07-29 11:59:00,
2015-07-29 08:04:00,68.4,64.7,29.50,NNE,22,0.0,0.0,88,-99.99,,,-99.99,VWS V15.00,2015-07-29 12:04:00,
2015-07-29 08:15:00,68.7,65.0,29.50,NNE,22,0.0,0.0,88,-99.99,,,-99.99,VWS V15.00,2015-07-29 12:15:00,
2015-07-29 08:20:00,68.9,65.2,29.50,NNE,22,0.0,0.0,88,-99.99,,,-99.99,VWS V15.00,2015-07-29 12:20:00,
2015-07-29 08:30:00,69.3,65.6,29.50,NNE,22,1.1,1.1,88,-99.99,,,-99.99,VWS V15.00,2015-07-29 12:30:00,
2015-07-29 08:35:00,69.4,65.7,29.50,NNE,22,2.7,2.7,88,-99.99,,,-99.99,VWS V15.00,2015-07-29 12:35:00,
2015-07-29 08:40:00,69.6,65.9,29.50,NNE,22,0.0,0.0,88,-99.99,,,-99.99,VWS V15.00,2015-07-29 12:40:00,
2015-07-29 08:45:00,69.8,65.8,29.50,NNE,22,1.6,1.6,87,-99.99,,,-99.99,VWS V15.00,2015-07-29 12:45:00,
2015-07-29 08:50:00,70.2,66.1,29.50,NNE,22,0.0,0.0,87,-99.99,,,-99.99,VWS V15.00,2015-07-29 12:50:00,
2015-07-29 08:55:00,70.5,66.5,29.47,NNE,22,2.7,2.7,87,-99.99,,,-99.99,VWS V15.00,2015-07-29 12:55:00,
2015-07-29 09:00:00,70.7,66.7,29.47,NNE,22,0.0,0.0,87,-99.99,,,-99.99,VWS V15.00,2015-07-29 13:00:00,
2015-07-29 09:06:00,70.9,66.8,29.47,NNE,22,2.0,2.0,87,-99.99,,,-99.99,VWS V15.00,2015-07-29 13:06:00,
2015-07-29 09:11:00,71.1,67.0,29.47,NNE,22,0.0,0.0,87,-99.99,,,-99.99,VWS V15.00,2015-07-29 13:11:00,
2015-07-29 09:16:00,71.4,67.3,29.47,NNE,22,0.0,0.0,87,-99.99,,,-99.99,VWS V15.00,2015-07-29 13:16:00,
2015-07-29 09:21:00,71.8,67.4,29.47,NE,45,4.5,4.5,86,-99.99,,,-99.99,VWS V15.00,2015-07-29 13:21:00,
2015-07-29 09:26:00,72.0,67.2,29.50,NE,45,3.4,3.4,85,-99.99,,,-99.99,VWS V15.00,2015-07-29 13:26:00,
2015-07-29 09:31:00,72.3,67.6,29.50,NE,45,1.1,1.1,85,-99.99,,,-99.99,VWS V15.00,2015-07-29 13:31:00,
2015-07-29 09:36:00,72.3,67.2,29.50,NE,45,4.9,4.9,84,-99.99,,,-99.99,VWS V15.00,2015-07-29 13:36:00,
2015-07-29 09:41:00,72.7,67.6,29.50,NNE,22,2.7,2.7,84,-99.99,,,-99.99,VWS V15.00,2015-07-29 13:41:00,
2015-07-29 09:46:00,73.0,67.9,29.50,NNE,22,2.0,2.0,84,-99.99,,,-99.99,VWS V15.00,2015-07-29 13:46:00,
2015-07-29 09:56:00,73.6,68.1,29.50,ESE,112,2.7,2.7,83,-99.99,,,-99.99,VWS V15.00,2015-07-29 13:56:00,
2015-07-29 10:01:00,73.9,68.5,29.50,NE,45,2.2,2.2,83,-99.99,,,-99.99,VWS V15.00,2015-07-29 14:01:00,
2015-07-29 10:06:00,74.1,68.6,29.50,NE,45,2.7,2.7,83,-99.99,,,-99.99,VWS V15.00,2015-07-29 14:06:00,
2015-07-29 10:11:00,74.3,68.4,29.50,NNE,22,4.0,4.0,82,-99.99,,,-99.99,VWS V15.00,2015-07-29 14:11:00,
2015-07-29 10:16:00,74.5,68.6,29.50,NNE,22,2.7,2.7,82,-99.99,,,-99.99,VWS V15.00,2015-07-29 14:16:00,
2015-07-29 10:21:00,74.7,68.1,29.50,NNE,22,2.0,2.0,80,-99.99,,,-99.99,VWS V15.00,2015-07-29 14:21:00,
2015-07-29 10:27:00,74.8,68.3,29.53,NNE,22,0.0,0.0,80,-99.99,,,-99.99,VWS V15.00,2015-07-29 14:27:00,
2015-07-29 10:32:00,75.0,68.4,29.53,NE,45,2.0,2.0,80,-99.99,,,-99.99,VWS V15.00,2015-07-29 14:32:00,
2015-07-29 10:37:00,75.4,68.4,29.53,NE,45,3.8,3.8,79,-99.99,,,-99.99,VWS V15.00,2015-07-29 14:37:00,
2015-07-29 10:42:00,75.7,68.8,29.47,NE,45,2.5,2.5,79,-99.99,,,-99.99,VWS V15.00,2015-07-29 14:42:00,
2015-07-29 10:47:00,75.9,68.9,29.47,NE,45,2.9,2.9,79,-99.99,,,-99.99,VWS V15.00,2015-07-29 14:47:00,
2015-07-29 10:52:00,76.3,69.3,29.47,North,0,4.3,4.3,79,-99.99,,,-99.99,VWS V15.00,2015-07-29 14:52:00,
2015-07-29 10:57:00,76.5,69.1,29.53,North,0,2.2,2.2,78,-99.99,,,-99.99,VWS V15.00,2015-07-29 14:57:00,
2015-07-29 11:02:00,76.6,68.9,29.53,NNE,22,0.0,0.0,77,-99.99,,,-99.99,VWS V15.00,2015-07-29 15:02:00,
2015-07-29 11:08:00,77.0,69.2,29.53,NNE,22,2.9,2.9,77,-99.99,,,-99.99,VWS V15.00,2015-07-29 15:08:00,
2015-07-29 11:13:00,77.4,69.2,29.50,NNE,22,2.5,2.5,76,-99.99,,,-99.99,VWS V15.00,2015-07-29 15:13:00,
2015-07-29 11:18:00,77.5,69.0,29.50,NE,45,2.7,2.7,75,-99.99,,,-99.99,VWS V15.00,2015-07-29 15:18:00,
2015-07-29 11:23:00,77.9,69.3,29.50,North,0,4.0,4.0,75,-99.99,,,-99.99,VWS V15.00,2015-07-29 15:23:00,
2015-07-29 11:28:00,78.1,68.3,29.50,North,0,0.0,0.0,72,-99.99,,,-99.99,VWS V15.00,2015-07-29 15:28:00,
2015-07-29 11:33:00,78.3,68.1,29.50,North,0,2.0,2.0,71,-99.99,,,-99.99,VWS V15.00,2015-07-29 15:33:00,
2015-07-29 11:38:00,78.4,68.3,29.50,NE,45,3.6,3.6,71,-99.99,,,-99.99,VWS V15.00,2015-07-29 15:38:00,
2015-07-29 11:43:00,78.6,68.0,29.50,NNE,22,2.5,2.5,70,-99.99,,,-99.99,VWS V15.00,2015-07-29 15:43:00,
2015-07-29 11:48:00,78.8,67.8,29.50,NNE,22,0.0,0.0,69,-99.99,,,-99.99,VWS V15.00,2015-07-29 15:48:00,
2015-07-29 11:53:00,79.2,68.1,29.50,WSW,248,1.1,1.1,69,-99.99,,,-99.99,VWS V15.00,2015-07-29 15:53:00,
2015-07-29 12:03:00,80.4,68.5,29.50,West,270,2.5,2.5,67,-99.99,,,-99.99,VWS V15.00,2015-07-29 16:03:00,
2015-07-29 12:09:00,80.8,69.2,29.50,NNE,22,2.2,2.2,68,-99.99,,,-99.99,VWS V15.00,2015-07-29 16:09:00,
2015-07-29 12:14:00,80.8,68.4,29.50,South,180,1.3,1.3,66,-99.99,,,-99.99,VWS V15.00,2015-07-29 16:14:00,
2015-07-29 12:19:00,81.1,68.7,29.50,SE,135,3.4,3.4,66,-99.99,,,-99.99,VWS V15.00,2015-07-29 16:19:00,
2015-07-29 12:24:00,81.3,68.9,29.47,WSW,248,3.1,3.1,66,-99.99,,,-99.99,VWS V15.00,2015-07-29 16:24:00,
2015-07-29 12:29:00,81.9,69.4,29.47,North,0,0.9,0.9,66,-99.99,,,-99.99,VWS V15.00,2015-07-29 16:29:00,
2015-07-29 12:34:00,82.0,69.1,29.47,SSW,202,2.0,2.0,65,-99.99,,,-99.99,VWS V15.00,2015-07-29 16:34:00,
2015-07-29 12:39:00,82.4,69.0,29.47,WSW,248,1.3,1.3,64,-99.99,,,-99.99,VWS V15.00,2015-07-29 16:39:00,
2015-07-29 12:44:00,82.6,69.6,29.47,SSW,202,2.9,2.9,65,-99.99,,,-99.99,VWS V15.00,2015-07-29 16:44:00,
2015-07-29 12:49:00,82.9,69.5,29.47,East,90,1.3,1.3,64,-99.99,,,-99.99,VWS V15.00,2015-07-29 16:49:00,
2015-07-29 12:55:00,83.1,69.7,29.47,West,270,2.9,2.9,64,-99.99,,,-99.99,VWS V15.00,2015-07-29 16:55:00,
2015-07-29 13:00:00,83.8,68.5,29.47,West,270,3.4,3.4,60,-99.99,,,-99.99,VWS V15.00,2015-07-29 17:00:00,
2015-07-29 13:05:00,84.2,67.3,29.47,SSE,158,3.1,3.1,57,-99.99,,,-99.99,VWS V15.00,2015-07-29 17:05:00,
2015-07-29 13:10:00,84.6,67.7,29.47,SSW,202,5.6,5.6,57,-99.99,,,-99.99,VWS V15.00,2015-07-29 17:10:00,
2015-07-29 13:15:00,84.9,67.5,29.47,SSE,158,2.0,2.0,56,-99.99,,,-99.99,VWS V15.00,2015-07-29 17:15:00,
2015-07-29 13:20:00,85.1,67.7,29.47,SSE,158,2.5,2.5,56,-99.99,,,-99.99,VWS V15.00,2015-07-29 17:20:00,
2015-07-29 13:25:00,85.8,67.3,29.47,West,270,3.4,3.4,54,-99.99,,,-99.99,VWS V15.00,2015-07-29 17:25:00,
2015-07-29 13:30:00,86.2,65.9,29.47,West,270,4.0,4.0,51,-99.99,,,-99.99,VWS V15.00,2015-07-29 17:30:00,
2015-07-29 13:35:00,86.4,62.5,29.47,SSW,202,3.1,3.1,45,-99.99,,,-99.99,VWS V15.00,2015-07-29 17:35:00,
2015-07-29 13:40:00,86.9,65.5,29.44,South,180,5.6,5.6,49,-99.99,,,-99.99,VWS V15.00,2015-07-29 17:40:00,
2015-07-29 13:45:00,87.1,65.0,29.44,West,270,4.0,4.0,48,-99.99,,,-99.99,VWS V15.00,2015-07-29 17:45:00,
2015-07-29 13:51:00,87.3,64.6,29.44,WSW,248,2.5,2.5,47,-99.99,,,-99.99,VWS V15.00,2015-07-29 17:51:00,
2015-07-29 13:56:00,87.4,65.9,29.47,WSW,248,3.4,3.4,49,-99.99,,,-99.99,VWS V15.00,2015-07-29 17:56:00,
2015-07-29 14:01:00,87.4,65.9,29.47,SSE,158,7.4,7.4,49,-99.99,,,-99.99,VWS V15.00,2015-07-29 18:01:00,
2015-07-29 14:11:00,88.2,66.6,29.47,SW,225,2.5,2.5,49,-99.99,,,-99.99,VWS V15.00,2015-07-29 18:11:00,
2015-07-29 14:16:00,88.5,65.1,29.47,West,270,3.8,3.8,46,-99.99,,,-99.99,VWS V15.00,2015-07-29 18:16:00,
2015-07-29 14:21:00,88.9,66.1,29.47,SSW,202,4.3,4.3,47,-99.99,,,-99.99,VWS V15.00,2015-07-29 18:21:00,
2015-07-29 14:26:00,89.1,65.6,29.44,South,180,3.4,3.4,46,-99.99,,,-99.99,VWS V15.00,2015-07-29 18:26:00,
2015-07-29 14:31:00,89.1,66.2,29.44,SSW,202,3.4,3.4,47,-99.99,,,-99.99,VWS V15.00,2015-07-29 18:31:00,
2015-07-29 14:36:00,89.4,64.0,29.44,WSW,248,6.3,6.3,43,-99.99,,,-99.99,VWS V15.00,2015-07-29 18:36:00,
2015-07-29 14:41:00,89.4,62.6,29.44,SSE,158,5.6,5.6,41,-99.99,,,-99.99,VWS V15.00,2015-07-29 18:41:00,
2015-07-29 14:46:00,89.6,62.1,29.44,South,180,4.9,4.9,40,-99.99,,,-99.99,VWS V15.00,2015-07-29 18:46:00,
2015-07-29 14:51:00,89.4,63.3,29.44,SSW,202,4.0,4.0,42,-99.99,,,-99.99,VWS V15.00,2015-07-29 18:51:00,
2015-07-29 14:56:00,89.4,62.6,29.44,SSW,202,2.7,2.7,41,-99.99,,,-99.99,VWS V15.00,2015-07-29 18:56:00,
2015-07-29 15:01:00,89.6,63.5,29.44,SSE,158,5.4,5.4,42,-99.99,,,-99.99,VWS V15.00,2015-07-29 19:01:00,
2015-07-29 15:06:00,90.1,64.0,29.44,SSW,202,1.3,1.3,42,-99.99,,,-99.99,VWS V15.00,2015-07-29 19:06:00,
2015-07-29 15:11:00,90.0,63.1,29.44,SSE,158,4.3,4.3,41,-99.99,,,-99.99,VWS V15.00,2015-07-29 19:11:00,
2015-07-29 15:17:00,89.8,63.0,29.44,South,180,3.4,3.4,41,-99.99,,,-99.99,VWS V15.00,2015-07-29 19:17:00,
2015-07-29 15:22:00,89.4,62.6,29.44,WSW,248,3.4,3.4,41,-99.99,,,-99.99,VWS V15.00,2015-07-29 19:22:00,
2015-07-29 15:27:00,89.4,61.9,29.44,SSW,202,2.7,2.7,40,-99.99,,,-99.99,VWS V15.00,2015-07-29 19:27:00,
2015-07-29 15:32:00,89.8,63.0,29.44,SSW,202,4.0,4.0,41,-99.99,,,-99.99,VWS V15.00,2015-07-29 19:32:00,
2015-07-29 15:37:00,90.1,62.6,29.44,West,270,2.0,2.0,40,-99.99,,,-99.99,VWS V15.00,2015-07-29 19:37:00,
2015-07-29 15:42:00,90.3,62.7,29.44,South,180,4.3,4.3,40,-99.99,,,-99.99,VWS V15.00,2015-07-29 19:42:00,
2015-07-29 15:47:00,90.7,63.1,29.44,South,180,5.8,5.8,40,-99.99,,,-99.99,VWS V15.00,2015-07-29 19:47:00,
2015-07-29 15:52:00,90.9,63.2,29.44,SSW,202,4.0,4.0,40,-99.99,,,-99.99,VWS V15.00,2015-07-29 19:52:00,
2015-07-29 15:58:00,90.9,63.2,29.44,South,180,4.3,4.3,40,-99.99,,,-99.99,VWS V15.00,2015-07-29 19:58:00,
2015-07-29 16:03:00,91.0,63.4,29.44,SW,225,7.4,7.4,40,-99.99,,,-99.99,VWS V15.00,2015-07-29 20:03:00,
2015-07-29 16:08:00,91.2,63.5,29.44,South,180,6.5,6.5,40,-99.99,,,-99.99,VWS V15.00,2015-07-29 20:08:00,
2015-07-29 16:13:00,91.2,64.2,29.44,SSE,158,4.7,4.7,41,-99.99,,,-99.99,VWS V15.00,2015-07-29 20:13:00,
2015-07-29 16:18:00,91.2,64.2,29.44,SSW,202,7.8,7.8,41,-99.99,,,-99.99,VWS V15.00,2015-07-29 20:18:00,
2015-07-29 16:23:00,91.2,63.5,29.41,South,180,2.7,2.7,40,-99.99,,,-99.99,VWS V15.00,2015-07-29 20:23:00,
2015-07-29 16:28:00,91.0,64.1,29.41,SSW,202,5.8,5.8,41,-99.99,,,-99.99,VWS V15.00,2015-07-29 20:28:00,
2015-07-29 16:33:00,91.2,62.8,29.41,SSW,202,3.6,3.6,39,-99.99,,,-99.99,VWS V15.00,2015-07-29 20:33:00,
2015-07-29 16:44:00,91.6,63.9,29.41,SSW,202,0.0,0.0,40,-99.99,,,-99.99,VWS V15.00,2015-07-29 20:44:00,
2015-07-29 16:49:00,91.6,63.9,29.41,WSW,248,2.9,2.9,40,-99.99,,,-99.99,VWS V15.00,2015-07-29 20:49:00,
2015-07-29 16:54:00,91.4,63.7,29.41,South,180,9.0,9.0,40,-99.99,,,-99.99,VWS V15.00,2015-07-29 20:54:00,
2015-07-29 16:59:00,91.0,63.4,29.41,SSW,202,8.7,8.7,40,-99.99,,,-99.99,VWS V15.00,2015-07-29 20:59:00,
2015-07-29 17:04:00,90.9,62.5,29.41,SSW,202,6.0,6.0,39,-99.99,,,-99.99,VWS V15.00,2015-07-29 21:04:00,
2015-07-29 17:09:00,90.7,61.6,29.38,South,180,7.8,7.8,38,-99.99,,,-99.99,VWS V15.00,2015-07-29 21:09:00,
2015-07-29 17:14:00,90.5,61.5,29.38,South,180,4.0,4.0,38,-99.99,,,-99.99,VWS V15.00,2015-07-29 21:14:00,
2015-07-29 17:19:00,90.3,61.3,29.38,SSW,202,3.4,3.4,38,-99.99,,,-99.99,VWS V15.00,2015-07-29 21:19:00,
2015-07-29 17:24:00,89.8,60.8,29.38,SW,225,2.7,2.7,38,-99.99,,,-99.99,VWS V15.00,2015-07-29 21:24:00,
2015-07-29 17:29:00,89.6,60.7,29.38,South,180,2.0,2.0,38,-99.99,,,-99.99,VWS V15.00,2015-07-29 21:29:00,